TimeMST,TemperatureF,Dew PointF,Humidity,Sea Level PressureIn,VisibilityMPH,Wind Direction,Wind SpeedMPH,Gust SpeedMPH,PrecipitationIn,Events,Conditions,WindDirDegrees,DateUTC
12:53 AM,36.0,12.0,37,30.04,10.0,WNW,10.4,-,N/A,,Mostly Cloudy,290,2013-01-24 07:53:00
1:53 AM,30.9,14.0,50,30.05,10.0,West,8.1,-,N/A,,Mostly Cloudy,260,2013-01-24 08:53:00
2:53 AM,30.9,15.1,52,30.04,10.0,WSW,11.5,-,N/A,,Mostly Cloudy,240,2013-01-24 09:53:00
3:53 AM,30.9,12.0,46,30.03,10.0,SSW,5.8,-,N/A,,Mostly Cloudy,200,2013-01-24 10:53:00
4:53 AM,33.1,10.9,40,30.05,10.0,NE,4.6,-,N/A,,Scattered Clouds,40,2013-01-24 11:53:00
5:53 AM,41.0,6.1,24,30.02,10.0,SSW,5.8,-,N/A,,Mostly Cloudy,200,2013-01-24 12:53:00
6:53 AM,39.9,3.9,22,30.02,10.0,SW,8.1,-,N/A,,Scattered Clouds,220,2013-01-24 13:53:00
7:53 AM,42.1,3.9,21,30.00,10.0,SW,6.9,-,N/A,,Mostly Cloudy,230,2013-01-24 14:53:00
8:53 AM,44.1,10.9,26,30.01,10.0,SSW,4.6,-,N/A,,Mostly Cloudy,210,2013-01-24 15:53:00
9:53 AM,50.0,1.9,14,29.98,10.0,SSW,11.5,-,N/A,,Mostly Cloudy,210,2013-01-24 16:53:00
10:53 AM,57.9,-0.0,10,29.92,10.0,West,4.6,-,N/A,,Mostly Cloudy,260,2013-01-24 17:53:00
11:53 AM,61.0,1.9,9,29.89,10.0,Variable,4.6,-,N/A,,Mostly Cloudy,0,2013-01-24 18:53:00
12:15 PM,64.4,3.2,9,29.98,10.0,WNW,18.4,23.0,N/A,,Mostly Cloudy,300,2013-01-24 19:15:00
12:53 PM,64.0,3.0,9,29.86,10.0,NNW,13.8,19.6,N/A,,Mostly Cloudy,330,2013-01-24 19:53:00
1:53 PM,63.0,7.0,11,29.87,10.0,NNW,11.5,-,N/A,,Mostly Cloudy,330,2013-01-24 20:53:00
2:42 PM,62.6,14.0,15,29.94,10.0,WNW,25.3,38.0,N/A,,Mostly Cloudy,300,2013-01-24 21:42:00
2:53 PM,63.0,14.0,15,29.86,10.0,WNW,29.9,36.8,N/A,,Mostly Cloudy,290,2013-01-24 21:53:00
3:53 PM,60.1,19.0,20,29.90,10.0,West,26.5,35.7,N/A,,Mostly Cloudy,280,2013-01-24 22:53:00
4:53 PM,57.9,19.9,23,29.92,10.0,WNW,25.3,32.2,N/A,,Mostly Cloudy,290,2013-01-24 23:53:00
5:53 PM,55.0,21.0,27,29.95,10.0,WNW,20.7,32.2,N/A,,Mostly Cloudy,290,2013-01-25 00:53:00
6:53 PM,53.1,21.9,30,29.99,10.0,WNW,18.4,-,N/A,,Mostly Cloudy,300,2013-01-25 01:53:00
7:53 PM,53.1,23.0,31,29.99,10.0,West,8.1,-,N/A,,Mostly Cloudy,280,2013-01-25 02:53:00
8:53 PM,48.0,21.0,34,30.02,10.0,ENE,3.5,-,N/A,,Mostly Cloudy,70,2013-01-25 03:53:00
9:53 PM,50.0,23.0,35,29.99,10.0,Calm,Calm,-,N/A,,Mostly Cloudy,0,2013-01-25 04:53:00
10:53 PM,42.1,21.0,43,30.01,10.0,South,12.7,-,N/A,,Scattered Clouds,180,2013-01-25 05:53:00
11:53 PM,44.1,21.9,42,29.97,10.0,West,6.9,-,N/A,,Partly Cloudy,260,2013-01-25 06:53:00